Weather History for KEYW - June, 2012

Change the Weather History Date:

Friday, June 22, 2012

  Actual Average Record
Temperature  
Mean Temperature 77 °F 84 °F  
Max Temperature 80 °F 88 °F 93 °F (1950)
Min Temperature 73 °F 79 °F 70 °F (1901)
Degree Days  
Heating Degree Days 0 0  
Month to date heating degree days 0 0  
Since 1 June heating degree days 0 0  
Since 1 July heating degree days 28 73  
Cooling Degree Days 12 19  
Month to date cooling degree days 374 398  
Year to date cooling degree days 2064 1828  
Since 1 June cooling degree days 374 398  
Growing Degree Days 26 (Base 50)    
Moisture  
Dew Point 74 °F    
Average Humidity 88    
Maximum Humidity 97    
Minimum Humidity 79    
Precipitation  
Precipitation 1.00 in 0.14 in 2.12 in (1995)
Month to date precipitation 7.87 3.02  
Year to date precipitation 24.97 13.65  
Snow  
Snow 0.00 in - - ()
Month to date snowfall 0.0  
Since 1 June snowfall 0.0  
Since 1 July snowfall 0.0  
Snow Depth 0.00 in    
Sea Level Pressure  
Sea Level Pressure 29.87 in    
Wind  
Wind Speed 13 mph (SSE)    
Max Wind Speed 29 mph    
Max Gust Speed 35 mph    
Visibility 9 miles    
Events Rain    
T = Trace of Precipitation, MM = Missing Value Source: NWS Daily Summary

Daily Weather History Graph

Daily Weather History Graph

Search for Another Location

Airport or City:

Trip Planner

Search our weather history database for the weather conditions in past years. The results will help you decide how hot, cold, wet, or windy it might be!

Date:

Astronomy

Jun. 22, 2012 Rise Set
Actual Time 6:39 AM EDT 8:18 PM EDT
Civil Twilight 6:13 AM EDT 8:44 PM EDT
Nautical Twilight 5:42 AM EDT 9:15 PM EDT
Astronomical Twilight 5:10 AM EDT 9:47 PM EDT
Moon 9:20 AM EDT (6/22) 10:35 PM EDT (6/22)
Length of Visible Light 14h 30m
Length of Day
13h 39m
Waxing Crescent, 9% of the Moon is Illuminated
Jun 22
Waxing Crescent
Jun 26
First Quarter
Jul 3
Full
Jul 10
Last Quarter
Jul 19
New

Hourly Weather History & Observations

Time (EDT) Temp. Heat Index Dew Point Humidity Pressure Visibility Wind Dir Wind Speed Gust Speed Precip Events Conditions
12:53 AM 78.8 °F - 73.4 °F 83% 29.88 in 10.0 mi SSE 11.5 mph - N/A   Scattered Clouds
1:53 AM 78.1 °F - 73.9 °F 87% 29.86 in 10.0 mi SSE 13.8 mph - N/A   Clear
2:53 AM 79.0 °F - 73.9 °F 84% 29.84 in 10.0 mi SSE 15.0 mph - N/A   Clear
3:53 AM 79.0 °F - 73.9 °F 84% 29.84 in 10.0 mi SSE 16.1 mph - N/A   Mostly Cloudy
4:49 AM 78.8 °F - 73.4 °F 83% 29.83 in 10.0 mi South 16.1 mph - N/A   Mostly Cloudy
4:53 AM 78.1 °F - 73.9 °F 87% 29.83 in 10.0 mi South 12.7 mph - N/A   Overcast
5:53 AM 78.1 °F - 73.0 °F 84% 29.83 in 10.0 mi South 11.5 mph - 0.00 in   Overcast
6:00 AM 78.8 °F - 73.4 °F 83% 29.83 in 10.0 mi South 12.7 mph - N/A   Overcast
6:53 AM 79.0 °F - 73.9 °F 84% 29.84 in 10.0 mi South 11.5 mph - N/A   Mostly Cloudy
7:11 AM 78.8 °F - 73.4 °F 83% 29.85 in 10.0 mi South 10.4 mph - N/A   Mostly Cloudy
7:18 AM 78.8 °F - 73.4 °F 83% 29.85 in 10.0 mi South 12.7 mph - N/A   Mostly Cloudy
7:49 AM 78.8 °F - 73.4 °F 83% 29.85 in 10.0 mi South 12.7 mph - N/A   Mostly Cloudy
7:53 AM 79.0 °F - 73.9 °F 84% 29.85 in 10.0 mi South 13.8 mph - N/A   Mostly Cloudy
8:53 AM 79.0 °F - 73.9 °F 84% 29.86 in 10.0 mi South 11.5 mph - N/A   Clear
9:53 AM 80.1 °F 84.5 °F 73.9 °F 81% 29.87 in 10.0 mi South 9.2 mph - N/A   Scattered Clouds
10:53 AM 80.1 °F 84.5 °F 73.9 °F 81% 29.88 in 10.0 mi South 9.2 mph - N/A   Mostly Cloudy
11:53 AM 80.1 °F 84.5 °F 73.9 °F 81% 29.89 in 10.0 mi South 12.7 mph - 0.00 in Rain Light Rain
12:53 PM 80.1 °F 84.5 °F 73.9 °F 81% 29.89 in 10.0 mi South 10.4 mph - 0.00 in Rain Light Rain
1:53 PM 80.1 °F 85.1 °F 75.0 °F 85% 29.89 in 10.0 mi SSE 9.2 mph - 0.00 in Rain Light Rain
2:53 PM 79.0 °F - 75.9 °F 90% 29.89 in 10.0 mi SE 8.1 mph - 0.00 in Rain Light Rain
3:53 PM 79.0 °F - 77.0 °F 94% 29.89 in 10.0 mi ESE 8.1 mph - 0.02 in Rain Light Rain
4:53 PM 79.0 °F - 77.0 °F 94% 29.88 in 10.0 mi ESE 9.2 mph - 0.02 in Rain Light Rain
5:53 PM 80.1 °F 85.4 °F 75.9 °F 87% 29.86 in 10.0 mi ESE 11.5 mph - 0.00 in   Partly Cloudy
6:53 PM 80.1 °F 85.4 °F 75.9 °F 87% 29.86 in 10.0 mi ESE 12.7 mph - N/A   Mostly Cloudy
7:20 PM 73.4 °F - 71.6 °F 94% 29.90 in 2.5 mi South 17.3 mph 33.4 mph 0.07 in Rain Heavy Rain
7:27 PM 73.4 °F - 71.6 °F 94% 29.90 in 3.0 mi South 23.0 mph 29.9 mph 0.14 in Rain Heavy Rain
7:31 PM 73.4 °F - 71.6 °F 94% 29.90 in 2.5 mi South 24.2 mph 33.4 mph 0.18 in Rain Heavy Rain
7:53 PM 73.0 °F - 73.0 °F 100% 29.89 in 2.5 mi South 25.3 mph 33.4 mph 0.47 in Rain Heavy Rain
8:08 PM 73.4 °F - 73.4 °F 100% 29.90 in 4.0 mi South 17.3 mph 26.5 mph 0.17 in Rain Heavy Rain
8:53 PM 75.9 °F - 73.9 °F 94% 29.91 in 8.0 mi SSE 16.1 mph - 0.26 in Rain Rain
9:53 PM 77.0 °F - 73.0 °F 88% 29.92 in 10.0 mi South 13.8 mph - 0.20 in Rain Light Rain
10:53 PM 77.0 °F - 73.0 °F 88% 29.93 in 10.0 mi SSE 15.0 mph - 0.03 in Rain Light Rain
11:53 PM 77.0 °F - 71.1 °F 82% 29.93 in 10.0 mi ESE 13.8 mph - 0.00 in   Clear